NOAA 16 DEB

Satellite information

Favourite Embed

Satellite Type and Status

DEBRISIN ORBIT

Key statistics

Satellite NOAA 16 DEB at a glance.

Uptime

9158

Days in orbit

Revolutions

≈ 14.2

Per day

Orbit

SSO

Sun Synchronous Orbit

Inclination

98.7

Latest

Satellite identification and parameters

Extended collection of information and parameters for NOAA 16 DEB.

Object identification

Identified? True

Debris? True

Object name: NOAA 16 DEB

International designator: 2000-055DG

Object number (NORAD): 41203

Object ID (CCSDS): 41203

Country: UNITED STATES OF AMERICA (US)

Current information (Y/N): Y

RCS size: SMALL

Orbital parameters

Period: 101.509 minutes

Inclination: 98.7021 deg

SMA: 7208.244 km

Apoapsis: 854.802 km

Periapsis: 805.416 km

RAAN: 333.085 deg

Eccentricy: 0.00342566

Argument of periapsis: 108.1384 deg

Mean anomaly: 252.3527 deg

Mean motion: 14.1859528 rev/day

Mean motion (dot): 0.00003874 rev/day2

B* drag term: 0.0018795117 1/REarth

Two-line elements (TLE)

Creation date: Oct. 18, 2025, 2:17 a.m.

Reference frame: TEME

Reference center: EARTH

Epoch: Oct. 17, 2025, 9:59 a.m. UTC

TLE line 0: 0 NOAA 16 DEB

TLE line 1: 1 41203U 00055DG 25290.41601872 .00003874 00000-0 18795-2 0 9991

TLE line 2: 2 41203 98.7021 333.0850 0034257 108.1384 252.3527 14.18595280507367

Live tracking on map

Real-time ground track for satellite NOAA 16 DEB.

In-orbit conjunctions

A list of the most updated potential collisions computed for object NOAA 16 DEB.

Target Orbit TCA Probability of collision Miss distance Type
SL-16 DEB LEO 2025-02-08 17:42:39 0.0002167505 127.0 (m) DEBRIS
SL-16 DEB LEO 2024-12-23 19:45:18 0.0001623608 55.0 (m) DEBRIS
FENGYUN 1C DEB SSO 2024-09-27 11:59:22 0.0002486725 132.0 (m) DEBRIS
COSMOS 1844 LEO 2024-09-19 09:42:51 0.0001110761 800.0 (m) PAYLOAD

Associated space launch

The NOAA K, L and M POES satellites begin the fifth generation of improved environmental monitoring in support of NOAA missions. The instrument payload has significant improvements and additions/deletions. The instrument changes have effected the spacecraft subsystems and data formats.

NOAA 16 DEB was lifted into orbit during the mission ‘Titan II SLV | NOAA 16’, on board a Titan II SLV space rocket.

The launch took place on Sept. 21, 2000, 10:22 a.m. from Space Launch Complex 4W.

For more information about the launch, click the button.

Launch to space Titan II SLV | NOAA 16
Titan II SLV | NOAA 16

Agency: N/A

Status: Launch Successful

Launch date: Sept. 21, 2000, 10:22 a.m. UTC

Rocket: Titan II SLV

Launch pad: Space Launch Complex 4W

Location: Vandenberg SFB, CA, USA

...

Latest news about this satellite

There are no fresh news available about this satellite. Check back as we update our databases every day.


Newsletter sign-up

Weekly statistics, charts and insights to help you stay on top of the space industry.